Watonga, OK

2:34 PM CDT on June 28, 2017 (GMT -0500)
Watonga

Weather History for KJWG - January, 2012

Change the Weather History Date:

Tuesday, January 17, 2012

  Actual Average Record
Temperature  
Mean Temperature 41 °F -  
Max Temperature 59 °F 46 °F 69 °F (1961)
Min Temperature 23 °F 25 °F 1 °F (1978)
Degree Days  
Heating Degree Days 24    
Moisture  
Dew Point 21 °F    
Average Humidity 65    
Maximum Humidity 81    
Minimum Humidity 48    
Precipitation  
Precipitation 0.00 in - - ()
Sea Level Pressure  
Sea Level Pressure 30.21 in    
Wind  
Wind Speed 17 mph (NNE)    
Max Wind Speed 25 mph    
Max Gust Speed 32 mph    
Visibility 10 miles    
Events      
Averages and records for this station are not official NWS values.
T = Trace of Precipitation, MM = Missing Value Source: NWS Daily Summary

Daily Weather History Graph

Daily Weather History Graph

Search for Another Location

Airport or City:

Trip Planner

Search our weather history database for the weather conditions in past years. The results will help you decide how hot, cold, wet, or windy it might be!

Date:

Astronomy

Jan. 17, 2012 Rise Set
Actual Time 7:42 AM CST 5:44 PM CST
Civil Twilight 7:14 AM CST 6:12 PM CST
Nautical Twilight 6:43 AM CST 6:44 PM CST
Astronomical Twilight 6:12 AM CST 7:14 PM CST
Moon 2:05 AM CST (1/17) 12:38 PM CST (1/17)
Length of Visible Light 10h 57m
Length of Day
10h 02m
Waning Crescent, 35% of the Moon is Illuminated
Jan 17
Waning Crescent
Jan 23
New
Jan 30
First Quarter
Feb 7
Full
Feb 14
Last Quarter

Hourly Weather History & Observations

Time (CST) Temp. Windchill Dew Point Humidity Pressure Visibility Wind Dir Wind Speed Gust Speed Precip Events Conditions
12:15 AM 59.0 °F - 41.0 °F 51% 29.76 in 10.0 mi West 15.0 mph 20.7 mph N/A   Scattered Clouds
12:35 AM 59.0 °F - 41.0 °F 51% 29.77 in 10.0 mi West 13.8 mph - N/A   Scattered Clouds
12:55 AM 57.2 °F - 41.0 °F 55% 29.82 in 10.0 mi North 19.6 mph 25.3 mph N/A   Scattered Clouds
1:15 AM 42.8 °F 34.5 °F 33.8 °F 70% 29.87 in 10.0 mi North 18.4 mph 27.6 mph N/A   Scattered Clouds
1:35 AM 37.4 °F 25.9 °F 32.0 °F 81% 29.90 in 10.0 mi North 25.3 mph 31.1 mph N/A   Scattered Clouds
2:15 AM 33.8 °F 21.9 °F 28.4 °F 81% 29.95 in 10.0 mi North 21.9 mph 29.9 mph N/A   Clear
2:35 AM 32.0 °F 19.2 °F 26.6 °F 80% 29.98 in 10.0 mi North 23.0 mph 31.1 mph N/A   Clear
2:55 AM 32.0 °F 20.5 °F 26.6 °F 80% 30.01 in 10.0 mi North 18.4 mph 32.2 mph N/A   Clear
3:15 AM 32.0 °F 21.2 °F 24.8 °F 75% 30.04 in 10.0 mi NNE 16.1 mph 28.8 mph N/A   Clear
3:35 AM 32.0 °F 21.2 °F 23.0 °F 69% 30.05 in 10.0 mi North 16.1 mph 29.9 mph N/A   Clear
3:55 AM 30.2 °F 18.1 °F 23.0 °F 75% 30.07 in 10.0 mi North 18.4 mph 23.0 mph N/A   Clear
4:15 AM 30.2 °F 17.8 °F 23.0 °F 75% 30.09 in 10.0 mi North 19.6 mph 27.6 mph N/A   Clear
4:35 AM 30.2 °F 17.8 °F 21.2 °F 69% 30.11 in 10.0 mi North 19.6 mph 23.0 mph N/A   Clear
4:55 AM 28.4 °F 16.2 °F 21.2 °F 74% 30.12 in 10.0 mi North 17.3 mph 27.6 mph N/A   Clear
5:35 AM 28.4 °F 13.8 °F 19.4 °F 69% 30.15 in 10.0 mi North 25.3 mph 32.2 mph N/A   Clear
5:55 AM 26.6 °F 13.4 °F 19.4 °F 74% 30.17 in 10.0 mi North 18.4 mph 25.3 mph N/A   Clear
6:15 AM 26.6 °F 13.8 °F 19.4 °F 74% 30.19 in 10.0 mi North 17.3 mph 23.0 mph N/A   Clear
6:35 AM 26.6 °F 14.3 °F 17.6 °F 69% 30.20 in 10.0 mi North 16.1 mph 26.5 mph N/A   Clear
6:55 AM 26.6 °F 13.8 °F 19.4 °F 74% 30.22 in 10.0 mi North 17.3 mph 20.7 mph N/A   Clear
7:15 AM 24.8 °F 11.9 °F 19.4 °F 80% 30.23 in 10.0 mi North 16.1 mph 25.3 mph N/A   Clear
7:35 AM 24.8 °F 12.9 °F 19.4 °F 80% 30.25 in 10.0 mi North 13.8 mph 21.9 mph N/A   Clear
7:55 AM 23.0 °F 9.2 °F 17.6 °F 80% 30.27 in 10.0 mi North 17.3 mph 29.9 mph N/A   Clear
8:15 AM 23.0 °F 9.6 °F 15.8 °F 74% 30.28 in 10.0 mi NNE 16.1 mph 26.5 mph N/A   Clear
8:35 AM 23.0 °F 10.6 °F 15.8 °F 74% 30.30 in 10.0 mi North 13.8 mph 20.7 mph N/A   Clear
8:55 AM 23.0 °F 10.1 °F 15.8 °F 74% 30.31 in 10.0 mi NNE 15.0 mph - N/A   Clear
9:15 AM 23.0 °F 10.1 °F 15.8 °F 74% 30.32 in 10.0 mi North 15.0 mph 24.2 mph N/A   Clear
9:35 AM 24.8 °F 11.9 °F 17.6 °F 74% 30.33 in 10.0 mi NNE 16.1 mph 25.3 mph N/A   Clear
9:55 AM 26.6 °F 12.7 °F 17.6 °F 69% 30.34 in 10.0 mi North 20.7 mph 24.2 mph N/A   Clear
10:15 AM 26.6 °F 13.1 °F 17.6 °F 69% 30.35 in 10.0 mi NNE 19.6 mph - N/A   Clear
10:55 AM 28.4 °F 14.7 °F 17.6 °F 64% 30.35 in 10.0 mi North 21.9 mph 26.5 mph N/A   Clear
11:15 AM 28.4 °F 16.6 °F 17.6 °F 64% 30.37 in 10.0 mi NNE 16.1 mph - N/A   Clear
11:35 AM 30.2 °F 17.4 °F 17.6 °F 60% 30.37 in 10.0 mi NNE 20.7 mph - N/A   Clear
11:55 AM 30.2 °F 18.1 °F 17.6 °F 60% 30.37 in 10.0 mi NNE 18.4 mph - N/A   Clear
12:15 PM 32.0 °F 20.8 °F 17.6 °F 55% 30.35 in 10.0 mi NNE 17.3 mph - N/A   Clear
12:35 PM 32.0 °F 19.8 °F 17.6 °F 55% 30.34 in 10.0 mi NE 20.7 mph 25.3 mph N/A   Clear
12:55 PM 32.0 °F 20.5 °F 17.6 °F 55% 30.34 in 10.0 mi NNE 18.4 mph 25.3 mph N/A   Clear
1:15 PM 32.0 °F 20.8 °F 17.6 °F 55% 30.34 in 10.0 mi NNE 17.3 mph - N/A   Clear
1:35 PM 32.0 °F 19.8 °F 17.6 °F 55% 30.33 in 10.0 mi NNE 20.7 mph 26.5 mph N/A   Clear
1:55 PM 33.8 °F 24.3 °F 19.4 °F 56% 30.33 in 10.0 mi NNE 13.8 mph 19.6 mph N/A   Clear
2:35 PM 33.8 °F 23.9 °F 19.4 °F 56% 30.32 in 10.0 mi NNE 15.0 mph - N/A   Clear
2:55 PM 35.6 °F 25.9 °F 19.4 °F 52% 30.31 in 10.0 mi NE 16.1 mph 21.9 mph N/A   Clear
3:15 PM 35.6 °F 25.5 °F 19.4 °F 52% 30.32 in 10.0 mi NNE 17.3 mph 20.7 mph N/A   Clear
3:35 PM 35.6 °F 25.9 °F 19.4 °F 52% 30.32 in 10.0 mi NNE 16.1 mph - N/A   Clear
4:15 PM 35.6 °F 25.9 °F 17.6 °F 48% 30.33 in 10.0 mi NNE 16.1 mph - N/A   Clear
4:35 PM 35.6 °F 25.9 °F 17.6 °F 48% 30.34 in 10.0 mi NNE 16.1 mph - N/A   Clear
4:55 PM 35.6 °F 28.0 °F 17.6 °F 48% 30.34 in 10.0 mi NNE 10.4 mph - N/A   Clear
5:15 PM 35.6 °F 27.5 °F 17.6 °F 48% 30.34 in 10.0 mi NNE 11.5 mph - N/A   Clear
5:35 PM 33.8 °F 24.8 °F 17.6 °F 52% 30.35 in 10.0 mi NNE 12.7 mph - N/A   Clear
5:55 PM 33.8 °F 24.8 °F 17.6 °F 52% 30.35 in 10.0 mi NNE 12.7 mph - N/A   Clear
6:15 PM 32.0 °F 24.8 °F 17.6 °F 55% 30.35 in 10.0 mi NNE 8.1 mph - N/A   Clear
6:35 PM 30.2 °F 24.3 °F 17.6 °F 60% 30.36 in 10.0 mi NNE 5.8 mph - N/A   Clear
6:55 PM 28.4 °F 22.2 °F 17.6 °F 64% 30.37 in 10.0 mi NNE 5.8 mph - N/A   Clear
7:15 PM 28.4 °F 23.3 °F 17.6 °F 64% 30.38 in 10.0 mi NNE 4.6 mph - N/A   Clear
7:35 PM 28.4 °F 23.3 °F 17.6 °F 64% 30.38 in 10.0 mi NE 4.6 mph - N/A   Clear
7:55 PM 28.4 °F 21.2 °F 17.6 °F 64% 30.39 in 10.0 mi NE 6.9 mph - N/A   Clear
8:15 PM 28.4 °F 22.2 °F 17.6 °F 64% 30.39 in 10.0 mi NE 5.8 mph - N/A   Clear
8:35 PM 26.6 °F 20.0 °F 17.6 °F 69% 30.39 in 10.0 mi NE 5.8 mph - N/A   Clear
8:55 PM 26.6 °F 20.0 °F 17.6 °F 69% 30.39 in 10.0 mi NE 5.8 mph - N/A   Clear
9:15 PM 24.8 °F 16.1 °F 17.6 °F 74% 30.39 in 10.0 mi NE 8.1 mph - N/A   Clear
9:35 PM 24.8 °F 16.1 °F 17.6 °F 74% 30.39 in 10.0 mi ENE 8.1 mph - N/A   Clear
9:55 PM 24.8 °F 19.1 °F 17.6 °F 74% 30.39 in 10.0 mi ENE 4.6 mph - N/A   Clear
10:15 PM 23.0 °F - 17.6 °F 80% 30.39 in 10.0 mi Calm Calm - N/A   Clear
10:35 PM 23.0 °F - 15.8 °F 74% 30.39 in 10.0 mi Calm Calm - N/A   Clear
10:55 PM 23.0 °F - 15.8 °F 74% 30.38 in 10.0 mi Calm Calm - N/A   Clear
11:15 PM 21.2 °F - 15.8 °F 80% 30.38 in 10.0 mi Calm Calm - N/A   Clear
11:35 PM 21.2 °F - 15.8 °F 80% 30.38 in 10.0 mi Calm Calm - N/A   Clear
11:55 PM 21.2 °F - 15.8 °F 80% 30.37 in 10.0 mi Calm Calm - N/A   Clear